COSMOS 2251 DEB, 37971

Orbit data source: Space-Track

COSMOS 2251 DEB, 37971 is space debris in LEO originally from a launch on Wed, 16 Jun 1993 UTC launched from the Plesetsk Missile And Space Complex (PKMTR). The debris from Iridium 33, an American commercial communications satellite, has been tracked extensively since its accidental collision with the defunct Russian satellite Cosmos 2251 in 2009. This event, occurring at high speed in low Earth orbit (LEO), generated thousands of pieces of space debris, significantly increasing the risk of further collisions. The Iridium 33 debris cloud has impacted space traffic management and orbital debris mitigation strategies, making it a subject of ongoing study in space situational awareness.

Loading next visibility...
Identifier
37971, 1993-036BPW
Orbit
LEO
Country
Flag of CISCIS
Related business
Manufacturer
Unknown
Mission
Spacecraft
Bus & Motor
Unknown
Mass
Unknown
Launch date (UTC)
1993-06-16 (33 years ago)
Launch vehicle
Unknown
Launch site
Plesetsk Missile And Space Complex (PKMTR)
Object type
Payload
Rocket body
Debris
Shape & HBR
Unknown shape, 0.1 m
Radar Cross Section
Small (<0.1 m²)

Expand to show TLE details & history
Last TLE update: 2 days ago

TLE from 2 days ago
0 COSMOS 2251 DEB
1 37971U 93036BPW 26205.62749648  .00005894  00000-0  14412-2 0  9999
2 37971  73.9909 340.0759 0068888  61.0870 299.7177 14.51315587639239
Epoch: 2026-07-24T15:03Z
TLE epoch observation values (Epoch: 2026-07-24T15:03:35.695Z)
Latitude
-0.00008°
Longitude
171.82574°
Altitude
699.989 km
Speed
7.519 km/s
True Right ascension
22h 40m 18s
True Declination
0° 00' 00"
Sunlit
Object was in full shadow at epoch
Visualization orbit readout
Latitude
Unknown
Longitude
Unknown
Altitude
Unknown
Speed
Unknown
Apparent Right ascension
Unknown
Apparent Declination
Unknown
Sunlit
N/A
Visualization observer readout
Local Sidereal Time
07:55:05
Azimuth
Unknown
Elevation
Unknown
Doppler factor
Unknown
Orbital elements
Apogee altitude
767.856 km
Perigee altitude
670.075 km
Semi-major axis
7,097.103 km
Eccentricity
0.00689
Inclination
73.9909°
RAAN
340.0759°
Arg. of periapsis
61.087°
True anomaly
299.0292°
Mean anomaly
299.7177°
Eccentric anomaly
299.37374°
Mean motion
3.63012 °/min
Orbital period
99.17 mins
BSTAR
0.0014412

Documentation

Showing up to 5 results
|